Location: Barrio Las Umbrías
(40.4173°N, 4.8685°W)
Time: 12:35:20
(UTC+00:00)

Landsat 7 - Pass Details

Date: 17 August 2022
Orbit: 693 x 695 km, 98.0° (Epoch: 28 September)

Event Time Altitude Azimuth Distance (km) Brightness Sun altitude
Exits shadow 20:25:32 - 166° (SSE) 2,263 6.0 -13.2°
Reaches altitude 10° 20:25:50 10° 166° (SSE) 2,145 5.9 -13.2°
Maximum altitude 20:30:32 89° 254° (WSW) 701 3.8 -14.0°
Drops below altitude 10° 20:35:17 10° 347° (NNW) 2,161 7.0 -14.8°
Sets 20:37:33 0° 348° (NNW) 3,082 7.9 -15.1°
